Simultaneous Nadir Overpasses (SNOs) Predictions

Prediction of SNOs between LANDSAT-8 and NPP Satellite Orbit:

Table of predicted SNOs for the next 14.0 days since TLE Epoch: 10/17/2015
Index Date (LANDSAT-8) Time (LANDSAT-8) Lat,Lon (LANDSAT-8) SZA (LANDSAT-8 ) Date (NPP) Time (NPP) Lat,Lon (NPP) SZA (NPP ) Distance(km) Time Diff (sec)
1 10/18/2015 20:46:29 70.44,-134.68 80.06 10/18/2015 20:45:24 70.42,-134.67 80.04 2.23 65
2 10/18/2015 21:35:58 -70.32, 32.79 100.04 10/18/2015 21:36:05 -70.33, 32.78 100.03 1.29 7
3 10/18/2015 22:25:32 69.84,-160.26 79.49 10/18/2015 22:26:42 69.84,-159.17 79.50 41.83 70
4 10/21/2015 13:02:59 70.41, -18.84 81.00 10/21/2015 13:02:16 70.39, -18.86 80.98 2.80 43
5 10/21/2015 13:52:29 -70.30, 148.64 99.10 10/21/2015 13:52:58 -70.30, 148.59 99.10 1.71 29
6 10/24/2015 04:29:48 -71.30, -69.24 97.17 10/24/2015 04:28:42 -71.36, -72.02 97.11 99.29 66
7 10/24/2015 05:19:30 70.38, 96.99 81.91 10/24/2015 05:19:09 70.37, 96.94 81.90 2.29 21
8 10/24/2015 06:09:00 -70.27, -95.53 98.19 10/24/2015 06:09:51 -70.28, -95.60 98.18 2.57 51
9 10/26/2015 20:46:33 -70.50, 45.40 97.06 10/26/2015 20:45:20 -70.56, 45.09 97.00 13.22 73
10 10/26/2015 21:36:01 70.33,-147.20 82.79 10/26/2015 21:36:02 70.35,-147.27 82.81 3.09 1
11 10/26/2015 22:25:31 -70.23, 20.28 97.31 10/26/2015 22:26:43 -70.20, 20.28 97.33 3.26 72
12 10/29/2015 13:03:05 -70.39, 161.11 96.27 10/29/2015 13:02:10 -70.39, 161.14 96.28 1.10 55
13 10/29/2015 13:52:31 70.28, -31.41
